Location: ???????
(55.4362°N, 38.1183°E)
Time: 03:08:28
(UTC+00:00)

Cosmos 1300 - Pass Details

Date: 17 June 2021
Orbit: 509 x 513 km, 82.5° (Epoch: 26 July)

Event Time Altitude Azimuth Distance (km) Brightness Sun altitude
Rises 20:09:34 0° 341° (NNW) 2,643 8.8 -9.4°
Reaches altitude 10° 20:11:53 10° 330° (NNW) 1,750 6.9 -9.5°
Maximum altitude 20:15:13 29° 269° (W) 964 4.2 -9.6°
Drops below altitude 10° 20:18:32 10° 209° (SSW) 1,734 4.9 -9.8°
Enters shadow 20:19:10 - 205° (SSW) 1,964 5.2 -9.8°
